User: anonymous   Login
Location: Bruderhein
(53.8035°N, 112.9265°W)
Time: 03:18:15
(UTC+00:00)
Language:

DIWATA 2B (PO-101) - Orbit

View from above orbital plane
View from above orbital plane
View from above satellite
View from above satellite

Ground track
Ground track

The orbit data is extracted from the following two-line orbital elements,

1 43678U 18084H   23087.57833717  .00003453  00000-0  33678-3 0  9995
2 43678  98.0074 230.0021 0010807  70.3666 289.8677 14.93093940240230
Epoch (UTC): 28 March 2023 13:52:48
Eccentricity: 0.0010807
inclination: 98.0074°
perigee height: 581 km
apogee height: 596 km
right ascension of ascending node: 230.0021°
argument of perigee: 70.3666°
revolutions per day: 14.93093940
mean anomaly at epoch: 289.8677°
orbit number at epoch: 24023

The dashed part of the orbit path shows where the satellite is in the earth's shadow,  

DLR